Retour au catalogue

USA 477

ActifMilitaireVLEO
NORAD 62546·PAYLOAD·🇺🇸 United States

Lancé Jan 10, 2025 depuis Vandenberg Space Force Base

Loading…

Prochains Passages (prochaines 24 heures)

TLE

PériméSource: Mike McCants

Époque: Aug 19, 2026, 21:09 UTC

1 62546U 25005Q   26231.88183187 0.00000000  00000-0  00000-0 0    06
2 62546  70.0180 257.1678 0003000 165.0999 194.9001 14.96713538    00

Suivez USA 477 en temps réel avec AllMySat

Download on the App Store